Time,TemperatureF,DewpointF,PressureIn,WindDirection,WindDirectionDegrees,WindSpeedMPH,WindSpeedGustMPH,Humidity,HourlyPrecipIn,Conditions,Clouds,dailyrainin,SoftwareType,DateUTC
2013-11-07 00:01:00,51.3,49.6,30.17,NNE,33,0.0,0.0,94,0.00,,,0.00,meteohub,2013-11-07 05:01:00,
2013-11-07 00:02:00,51.3,49.6,30.17,NNE,33,0.0,0.0,94,0.00,,,0.00,meteohub,2013-11-07 05:02:00,
2013-11-07 00:06:00,51.1,49.5,30.17,NNE,32,0.0,0.0,94,0.00,,,0.00,meteohub,2013-11-07 05:06:00,
2013-11-07 00:11:00,50.5,48.9,30.17,NNE,33,0.0,0.0,94,0.00,,,0.00,meteohub,2013-11-07 05:11:00,
2013-11-07 00:16:00,50.5,49.1,30.17,NNE,33,0.0,0.0,95,0.00,,,0.00,meteohub,2013-11-07 05:16:00,
2013-11-07 00:21:00,50.7,49.6,30.16,NNE,33,0.0,0.0,96,0.00,,,0.00,meteohub,2013-11-07 05:21:00,
2013-11-07 00:26:00,50.7,49.6,30.16,NNE,32,0.0,0.0,96,0.00,,,0.00,meteohub,2013-11-07 05:26:00,
2013-11-07 00:31:00,50.9,49.8,30.16,NNE,32,0.0,0.0,96,0.00,,,0.00,meteohub,2013-11-07 05:31:00,
2013-11-07 00:36:00,50.7,49.6,30.16,NNE,33,0.0,0.0,96,0.00,,,0.00,meteohub,2013-11-07 05:36:00,
2013-11-07 00:41:00,50.5,49.1,30.16,NNE,32,0.0,0.0,95,0.00,,,0.00,meteohub,2013-11-07 05:41:00,
2013-11-07 00:46:00,50.5,49.5,30.15,NNE,33,0.0,0.0,96,0.00,,,0.00,meteohub,2013-11-07 05:46:00,
2013-11-07 00:51:00,50.5,49.5,30.15,NNE,33,0.0,0.0,96,0.00,,,0.00,meteohub,2013-11-07 05:51:00,
2013-11-07 00:56:00,50.4,49.3,30.15,NNE,33,0.0,0.0,96,0.00,,,0.00,meteohub,2013-11-07 05:56:00,
2013-11-07 01:01:00,50.7,49.6,30.15,NE,49,0.0,0.0,96,0.00,,,0.00,meteohub,2013-11-07 06:01:00,
2013-11-07 01:06:00,50.7,49.6,30.14,NE,50,0.0,0.0,96,0.00,,,0.00,meteohub,2013-11-07 06:06:00,
2013-11-07 01:11:00,50.9,49.8,30.14,NE,49,0.0,0.0,96,0.00,,,0.00,meteohub,2013-11-07 06:11:00,
2013-11-07 01:16:00,51.1,50.0,30.14,SSE,164,0.0,0.0,96,0.00,,,0.00,meteohub,2013-11-07 06:16:00,
2013-11-07 01:21:00,51.6,50.7,30.13,SW,236,0.0,1.0,97,0.00,,,0.00,meteohub,2013-11-07 06:21:00,
2013-11-07 01:26:00,52.0,51.1,30.13,SW,235,0.0,1.0,97,0.00,,,0.00,meteohub,2013-11-07 06:26:00,
2013-11-07 01:31:00,52.2,51.1,30.13,SW,235,0.0,1.0,96,0.00,,,0.00,meteohub,2013-11-07 06:31:00,
2013-11-07 01:36:00,52.2,51.1,30.13,SW,235,0.0,1.0,96,0.00,,,0.00,meteohub,2013-11-07 06:36:00,
2013-11-07 01:41:00,52.2,50.7,30.13,SW,234,0.0,0.0,95,0.00,,,0.00,meteohub,2013-11-07 06:41:00,
2013-11-07 01:46:00,52.2,50.7,30.12,SW,224,0.0,0.0,95,0.00,,,0.00,meteohub,2013-11-07 06:46:00,
2013-11-07 01:51:00,52.2,50.7,30.12,SW,224,0.0,1.0,95,0.00,,,0.00,meteohub,2013-11-07 06:51:00,
2013-11-07 01:56:00,52.2,50.7,30.12,SW,224,0.0,1.0,95,0.00,,,0.00,meteohub,2013-11-07 06:56:00,
2013-11-07 02:01:00,52.2,50.7,30.11,SSE,155,0.0,0.0,95,0.00,,,0.00,meteohub,2013-11-07 07:01:00,
2013-11-07 02:06:00,52.0,50.5,30.11,SSW,204,0.0,0.0,95,0.00,,,0.00,meteohub,2013-11-07 07:06:00,
2013-11-07 02:11:00,52.2,50.7,30.11,WSW,250,0.0,2.0,95,0.00,,,0.00,meteohub,2013-11-07 07:11:00,
2013-11-07 02:16:00,52.2,50.7,30.10,SW,218,0.0,2.0,95,0.00,,,0.00,meteohub,2013-11-07 07:16:00,
2013-11-07 02:21:00,52.0,50.5,30.11,SW,224,0.0,2.0,95,0.00,,,0.00,meteohub,2013-11-07 07:21:00,
2013-11-07 02:26:00,52.0,50.5,30.10,SE,146,0.0,1.0,95,0.00,,,0.00,meteohub,2013-11-07 07:26:00,
2013-11-07 02:31:00,52.0,50.5,30.09,West,274,0.0,3.0,95,0.00,,,0.00,meteohub,2013-11-07 07:31:00,
2013-11-07 02:36:00,52.2,50.7,30.09,SSW,207,0.0,3.0,95,0.00,,,0.00,meteohub,2013-11-07 07:36:00,
2013-11-07 02:41:00,52.2,50.7,30.09,SE,131,0.0,3.0,95,0.00,,,0.00,meteohub,2013-11-07 07:41:00,
2013-11-07 02:46:00,52.2,50.7,30.09,WSW,240,0.0,2.0,95,0.00,,,0.00,meteohub,2013-11-07 07:46:00,
2013-11-07 02:51:00,52.2,50.7,30.09,West,274,0.0,1.0,95,0.00,,,0.00,meteohub,2013-11-07 07:51:00,
2013-11-07 02:56:00,52.2,50.7,30.09,SW,215,0.0,1.0,95,0.00,,,0.00,meteohub,2013-11-07 07:56:00,
2013-11-07 03:01:00,52.2,50.7,30.08,WNW,295,0.0,1.0,95,0.00,,,0.00,meteohub,2013-11-07 08:01:00,
2013-11-07 03:06:00,52.3,50.9,30.07,WSW,245,0.0,1.0,95,0.00,,,0.00,meteohub,2013-11-07 08:06:00,
2013-11-07 03:11:00,52.3,50.9,30.07,South,179,0.0,1.0,95,0.00,,,0.00,meteohub,2013-11-07 08:11:00,
2013-11-07 03:16:00,52.5,51.1,30.06,WSW,256,0.0,1.0,95,0.00,,,0.00,meteohub,2013-11-07 08:16:00,
2013-11-07 03:21:00,52.7,51.3,30.06,WSW,257,0.0,1.0,95,0.00,,,0.00,meteohub,2013-11-07 08:21:00,
2013-11-07 03:26:00,52.9,51.4,30.07,NW,312,0.0,1.0,95,0.00,,,0.00,meteohub,2013-11-07 08:26:00,
2013-11-07 03:31:00,53.2,51.8,30.06,WNW,284,0.0,1.0,95,0.00,,,0.00,meteohub,2013-11-07 08:31:00,
2013-11-07 03:36:00,53.4,52.0,30.06,WSW,257,0.0,2.0,95,0.00,,,0.00,meteohub,2013-11-07 08:36:00,
2013-11-07 03:41:00,53.8,52.2,30.06,NW,310,0.0,3.0,94,0.00,,,0.00,meteohub,2013-11-07 08:41:00,
2013-11-07 03:46:00,53.8,52.2,30.05,WNW,283,0.0,3.0,94,0.00,,,0.00,meteohub,2013-11-07 08:46:00,
2013-11-07 03:51:00,53.8,52.2,30.05,NW,304,0.0,3.0,94,0.00,,,0.00,meteohub,2013-11-07 08:51:00,
2013-11-07 03:56:00,53.8,51.8,30.05,WSW,257,0.0,1.0,93,0.00,,,0.00,meteohub,2013-11-07 08:56:00,
2013-11-07 04:01:00,53.8,51.8,30.05,WNW,283,0.0,1.0,93,0.00,,,0.00,meteohub,2013-11-07 09:01:00,
2013-11-07 04:06:00,53.8,51.8,30.05,WNW,293,0.0,1.0,93,0.00,,,0.00,meteohub,2013-11-07 09:06:00,
2013-11-07 04:11:00,53.8,51.8,30.05,WNW,290,0.0,1.0,93,0.00,,,0.00,meteohub,2013-11-07 09:11:00,
2013-11-07 04:17:00,53.8,52.2,30.05,West,264,0.0,0.0,94,0.00,,,0.00,meteohub,2013-11-07 09:17:00,
2013-11-07 04:22:00,53.8,52.2,30.06,West,266,0.0,0.0,94,0.00,,,0.00,meteohub,2013-11-07 09:22:00,
2013-11-07 04:27:00,53.8,52.2,30.05,SW,222,0.0,0.0,94,0.00,,,0.00,meteohub,2013-11-07 09:27:00,
2013-11-07 04:32:00,53.8,52.2,30.05,WSW,243,0.0,2.0,94,0.00,,,0.00,meteohub,2013-11-07 09:32:00,
2013-11-07 04:37:00,53.6,52.0,30.05,West,271,0.0,2.0,94,0.00,,,0.00,meteohub,2013-11-07 09:37:00,
2013-11-07 04:42:00,53.6,52.0,30.05,WNW,290,0.0,3.0,94,0.00,,,0.00,meteohub,2013-11-07 09:42:00,
2013-11-07 04:47:00,53.4,51.8,30.05,South,179,0.0,3.0,94,0.00,,,0.00,meteohub,2013-11-07 09:47:00,
2013-11-07 04:52:00,53.6,52.2,30.05,NW,325,0.0,3.0,95,0.00,,,0.00,meteohub,2013-11-07 09:52:00,
2013-11-07 04:57:00,53.6,52.2,30.05,WSW,256,0.0,2.0,95,0.00,,,0.00,meteohub,2013-11-07 09:57:00,
2013-11-07 05:02:00,53.8,52.3,30.05,WNW,300,0.0,1.0,95,0.00,,,0.00,meteohub,2013-11-07 10:02:00,
2013-11-07 05:07:00,53.8,52.3,30.04,WSW,258,0.0,1.0,95,0.00,,,0.00,meteohub,2013-11-07 10:07:00,
2013-11-07 05:12:00,53.8,52.3,30.04,West,273,0.0,1.0,95,0.00,,,0.00,meteohub,2013-11-07 10:12:00,
2013-11-07 05:17:00,53.8,52.3,30.04,WSW,254,0.0,1.0,95,0.00,,,0.00,meteohub,2013-11-07 10:17:00,
2013-11-07 05:22:00,53.8,52.3,30.04,WNW,283,1.0,1.0,95,0.00,,,0.00,meteohub,2013-11-07 10:22:00,
2013-11-07 05:27:00,53.8,52.3,30.05,North,351,0.0,2.0,95,0.00,,,0.00,meteohub,2013-11-07 10:27:00,
2013-11-07 05:32:00,53.8,52.3,30.05,WNW,295,0.0,4.0,95,0.00,,,0.00,meteohub,2013-11-07 10:32:00,
2013-11-07 05:37:00,53.8,52.7,30.05,West,276,0.0,4.0,96,0.00,,,0.00,meteohub,2013-11-07 10:37:00,
2013-11-07 05:42:00,53.8,52.7,30.05,WSW,241,0.0,3.0,96,0.00,,,0.00,meteohub,2013-11-07 10:42:00,
2013-11-07 05:47:00,53.8,52.7,30.04,West,267,0.0,4.0,96,0.00,,,0.00,meteohub,2013-11-07 10:47:00,
2013-11-07 05:52:00,53.8,52.7,30.04,West,263,0.0,4.0,96,0.00,,,0.00,meteohub,2013-11-07 10:52:00,
2013-11-07 05:57:00,53.8,52.7,30.04,WSW,248,0.0,4.0,96,0.00,,,0.00,meteohub,2013-11-07 10:57:00,
2013-11-07 06:02:00,53.8,52.7,30.04,WSW,245,0.0,3.0,96,0.00,,,0.00,meteohub,2013-11-07 11:02:00,
2013-11-07 06:07:00,53.6,52.5,30.04,West,273,0.0,3.0,96,0.00,,,0.00,meteohub,2013-11-07 11:07:00,
2013-11-07 06:12:00,53.6,52.5,30.04,NW,317,0.0,3.0,96,0.00,,,0.00,meteohub,2013-11-07 11:12:00,
2013-11-07 06:17:00,53.6,52.5,30.04,WSW,249,0.0,1.0,96,0.00,,,0.00,meteohub,2013-11-07 11:17:00,
2013-11-07 06:22:00,53.6,52.5,30.04,West,273,0.0,1.0,96,0.00,,,0.00,meteohub,2013-11-07 11:22:00,
2013-11-07 06:27:00,53.6,52.5,30.04,WSW,257,0.0,1.0,96,0.00,,,0.00,meteohub,2013-11-07 11:27:00,
2013-11-07 06:32:00,53.6,52.5,30.04,West,260,0.0,2.0,96,0.00,,,0.00,meteohub,2013-11-07 11:32:00,
2013-11-07 06:34:00,53.6,52.5,30.04,SW,216,2.0,2.0,96,0.00,,,0.00,meteohub,2013-11-07 11:34:00,
2013-11-07 06:39:00,53.6,52.7,30.03,WSW,240,0.0,2.0,97,0.00,,,0.00,meteohub,2013-11-07 11:39:00,
2013-11-07 06:44:00,53.8,52.9,30.03,WSW,243,0.0,2.0,97,0.00,,,0.00,meteohub,2013-11-07 11:44:00,
2013-11-07 06:49:00,53.8,52.9,30.03,WNW,295,0.0,4.0,97,0.00,,,0.00,meteohub,2013-11-07 11:49:00,
2013-11-07 06:54:00,53.8,52.9,30.03,West,278,0.0,4.0,97,0.01,,,0.01,meteohub,2013-11-07 11:54:00,
2013-11-07 06:59:00,53.8,52.9,30.03,West,278,0.0,4.0,97,0.01,,,0.01,meteohub,2013-11-07 11:59:00,
2013-11-07 07:04:00,54.0,53.1,30.04,WNW,301,0.0,2.0,97,0.01,,,0.01,meteohub,2013-11-07 12:04:00,
2013-11-07 07:09:00,54.0,53.1,30.04,NNE,33,0.0,2.0,97,0.01,,,0.01,meteohub,2013-11-07 12:09:00,
2013-11-07 07:14:00,54.0,53.1,30.04,WSW,246,0.0,1.0,97,0.01,,,0.01,meteohub,2013-11-07 12:14:00,
2013-11-07 07:19:00,54.1,53.2,30.04,West,262,1.0,2.0,97,0.01,,,0.01,meteohub,2013-11-07 12:19:00,
2013-11-07 07:24:00,54.1,53.2,30.04,SW,233,0.0,2.0,97,0.02,,,0.02,meteohub,2013-11-07 12:24:00,
2013-11-07 07:29:00,54.1,53.2,30.04,West,273,0.0,3.0,97,0.02,,,0.02,meteohub,2013-11-07 12:29:00,
2013-11-07 07:34:00,54.3,53.4,30.04,WSW,255,1.0,5.0,97,0.03,,,0.03,meteohub,2013-11-07 12:34:00,
2013-11-07 07:39:00,54.3,53.4,30.04,West,276,0.0,5.0,97,0.03,,,0.03,meteohub,2013-11-07 12:39:00,
2013-11-07 07:44:00,54.3,53.4,30.04,NW,304,0.0,5.0,97,0.03,,,0.03,meteohub,2013-11-07 12:44:00,
2013-11-07 07:49:00,54.3,53.4,30.04,West,281,1.0,4.0,97,0.03,,,0.04,meteohub,2013-11-07 12:49:00,
2013-11-07 07:54:00,54.3,53.4,30.04,WNW,291,0.0,3.0,97,0.03,,,0.04,meteohub,2013-11-07 12:54:00,
2013-11-07 07:59:00,54.5,53.6,30.04,West,277,0.0,3.0,97,0.03,,,0.04,meteohub,2013-11-07 12:59:00,
2013-11-07 08:04:00,54.5,53.6,30.04,SSW,206,0.0,2.0,97,0.03,,,0.04,meteohub,2013-11-07 13:04:00,
2013-11-07 08:09:00,54.7,53.8,30.04,SSW,212,0.0,2.0,97,0.03,,,0.04,meteohub,2013-11-07 13:09:00,
2013-11-07 08:14:00,54.7,53.8,30.04,SW,217,0.0,2.0,97,0.04,,,0.05,meteohub,2013-11-07 13:14:00,
2013-11-07 08:19:00,54.7,53.8,30.03,SW,219,0.0,2.0,97,0.03,,,0.05,meteohub,2013-11-07 13:19:00,
2013-11-07 08:24:00,54.9,54.0,30.03,SW,219,0.0,0.0,97,0.03,,,0.05,meteohub,2013-11-07 13:24:00,
2013-11-07 08:29:00,54.9,54.0,30.03,WSW,243,0.0,1.0,97,0.02,,,0.05,meteohub,2013-11-07 13:29:00,
2013-11-07 08:34:00,54.9,54.0,30.03,WSW,240,0.0,2.0,97,0.02,,,0.05,meteohub,2013-11-07 13:34:00,
2013-11-07 08:39:00,55.0,54.1,30.02,SSW,208,0.0,2.0,97,0.02,,,0.05,meteohub,2013-11-07 13:39:00,
2013-11-07 08:44:00,55.0,54.1,30.03,SW,226,0.0,2.0,97,0.02,,,0.05,meteohub,2013-11-07 13:44:00,
2013-11-07 08:49:00,55.2,54.3,30.02,West,263,0.0,1.0,97,0.01,,,0.05,meteohub,2013-11-07 13:49:00,
2013-11-07 08:54:00,55.2,54.3,30.02,West,264,0.0,1.0,97,0.01,,,0.05,meteohub,2013-11-07 13:54:00,
2013-11-07 08:59:00,55.6,54.7,30.02,West,263,0.0,0.0,97,0.01,,,0.05,meteohub,2013-11-07 13:59:00,
2013-11-07 09:04:00,55.6,54.7,30.02,WNW,282,0.0,0.0,97,0.01,,,0.05,meteohub,2013-11-07 14:04:00,
2013-11-07 09:09:00,55.8,54.7,30.02,WNW,282,0.0,0.0,96,0.01,,,0.05,meteohub,2013-11-07 14:09:00,
2013-11-07 09:14:00,55.8,54.7,30.02,WNW,295,0.0,0.0,96,0.00,,,0.05,meteohub,2013-11-07 14:14:00,
2013-11-07 09:19:00,55.8,54.7,30.02,WSW,250,0.0,0.0,96,0.00,,,0.05,meteohub,2013-11-07 14:19:00,
2013-11-07 09:24:00,56.1,55.0,30.02,North,0,0.0,2.0,96,0.00,,,0.05,meteohub,2013-11-07 14:24:00,
2013-11-07 09:29:00,56.3,54.9,30.01,West,262,0.0,2.0,95,0.00,,,0.05,meteohub,2013-11-07 14:29:00,
2013-11-07 09:34:00,56.5,54.9,30.02,West,265,0.0,1.0,94,0.00,,,0.05,meteohub,2013-11-07 14:34:00,
2013-11-07 09:39:00,56.7,55.0,30.02,West,266,0.0,1.0,94,0.00,,,0.05,meteohub,2013-11-07 14:39:00,
2013-11-07 09:44:00,56.7,54.7,30.02,West,264,0.0,1.0,93,0.00,,,0.05,meteohub,2013-11-07 14:44:00,
2013-11-07 09:49:00,56.8,55.2,30.02,NE,53,0.0,1.0,94,0.00,,,0.05,meteohub,2013-11-07 14:49:00,
2013-11-07 09:54:00,57.0,55.0,30.02,West,277,0.0,2.0,93,0.00,,,0.05,meteohub,2013-11-07 14:54:00,
2013-11-07 10:00:00,57.4,55.4,30.02,WSW,257,0.0,2.0,93,0.00,,,0.05,meteohub,2013-11-07 15:00:00,
2013-11-07 10:05:00,57.4,55.0,30.02,West,266,0.0,2.0,92,0.00,,,0.05,meteohub,2013-11-07 15:05:00,
2013-11-07 10:10:00,57.4,55.0,30.02,West,278,0.0,2.0,92,0.00,,,0.05,meteohub,2013-11-07 15:10:00,
2013-11-07 10:15:00,57.6,55.2,30.02,SSE,163,0.0,2.0,92,0.00,,,0.05,meteohub,2013-11-07 15:15:00,
2013-11-07 10:20:00,58.3,55.6,30.02,WSW,243,0.0,2.0,91,0.00,,,0.05,meteohub,2013-11-07 15:20:00,
2013-11-07 10:25:00,59.2,56.3,30.02,WSW,242,0.0,3.0,90,0.00,,,0.05,meteohub,2013-11-07 15:25:00,
2013-11-07 10:30:00,59.7,56.1,30.02,West,276,0.0,3.0,88,0.00,,,0.05,meteohub,2013-11-07 15:30:00,
2013-11-07 10:35:00,60.3,56.1,30.02,WNW,294,1.0,3.0,86,0.00,,,0.05,meteohub,2013-11-07 15:35:00,
2013-11-07 10:40:00,60.4,55.6,30.02,NNE,13,0.0,3.0,84,0.00,,,0.05,meteohub,2013-11-07 15:40:00,
2013-11-07 10:45:00,60.6,56.5,30.03,NNE,25,8.0,8.0,86,0.00,,,0.05,meteohub,2013-11-07 15:45:00,
2013-11-07 10:50:00,59.7,55.8,30.02,NW,321,1.0,11.0,87,0.00,,,0.05,meteohub,2013-11-07 15:50:00,
2013-11-07 10:55:00,59.4,55.4,30.03,NE,36,4.0,11.0,87,0.00,,,0.05,meteohub,2013-11-07 15:55:00,
2013-11-07 11:00:00,58.6,55.4,30.03,NNE,20,1.0,11.0,89,0.00,,,0.05,meteohub,2013-11-07 16:00:00,
2013-11-07 11:05:00,58.5,55.2,30.02,NNE,30,6.0,11.0,89,0.00,,,0.05,meteohub,2013-11-07 16:05:00,
2013-11-07 11:10:00,58.6,55.4,30.03,WNW,287,2.0,11.0,89,0.00,,,0.05,meteohub,2013-11-07 16:10:00,
2013-11-07 11:15:00,58.6,55.4,30.03,NNW,328,0.0,8.0,89,0.00,,,0.05,meteohub,2013-11-07 16:15:00,
2013-11-07 11:20:00,58.5,54.9,30.03,NNE,21,5.0,7.0,88,0.00,,,0.05,meteohub,2013-11-07 16:20:00,
2013-11-07 11:25:00,57.9,54.3,30.03,North,356,2.0,6.0,88,0.00,,,0.05,meteohub,2013-11-07 16:25:00,
2013-11-07 11:30:00,57.6,54.0,30.03,NNE,20,6.0,7.0,88,0.00,,,0.05,meteohub,2013-11-07 16:30:00,
2013-11-07 11:35:00,57.4,53.6,30.02,ENE,58,4.0,7.0,87,0.00,,,0.05,meteohub,2013-11-07 16:35:00,
2013-11-07 11:40:00,57.4,53.8,30.03,NNE,12,2.0,7.0,88,0.00,,,0.05,meteohub,2013-11-07 16:40:00,
2013-11-07 11:45:00,57.7,54.0,30.02,NNE,29,5.0,7.0,87,0.00,,,0.05,meteohub,2013-11-07 16:45:00,
2013-11-07 11:50:00,58.3,53.8,30.02,NNE,23,5.0,9.0,85,0.00,,,0.05,meteohub,2013-11-07 16:50:00,
2013-11-07 11:55:00,58.6,53.4,30.02,ENE,61,6.0,9.0,83,0.00,,,0.05,meteohub,2013-11-07 16:55:00,
2013-11-07 12:00:00,58.8,52.7,30.02,NNW,333,3.0,9.0,80,0.00,,,0.05,meteohub,2013-11-07 17:00:00,
2013-11-07 12:05:00,59.2,53.1,30.02,North,1,4.0,10.0,80,0.00,,,0.05,meteohub,2013-11-07 17:05:00,
2013-11-07 12:10:00,59.2,53.1,30.02,NE,46,4.0,10.0,80,0.00,,,0.05,meteohub,2013-11-07 17:10:00,
2013-11-07 12:15:00,59.5,53.1,30.02,NE,46,10.0,10.0,79,0.00,,,0.05,meteohub,2013-11-07 17:15:00,
2013-11-07 12:20:00,59.5,52.3,30.01,NE,46,7.0,13.0,77,0.00,,,0.05,meteohub,2013-11-07 17:20:00,
2013-11-07 12:25:00,59.4,52.5,30.01,NNE,29,6.0,13.0,78,0.00,,,0.05,meteohub,2013-11-07 17:25:00,
2013-11-07 12:30:00,59.4,51.8,30.01,NNE,29,4.0,13.0,76,0.00,,,0.05,meteohub,2013-11-07 17:30:00,
2013-11-07 12:35:00,59.7,51.8,30.01,NE,39,4.0,13.0,75,0.00,,,0.05,meteohub,2013-11-07 17:35:00,
2013-11-07 12:40:00,60.1,51.4,30.01,ENE,66,5.0,9.0,73,0.00,,,0.05,meteohub,2013-11-07 17:40:00,
2013-11-07 12:46:00,60.1,51.8,30.01,ENE,60,6.0,9.0,74,0.00,,,0.05,meteohub,2013-11-07 17:46:00,
2013-11-07 12:51:00,59.5,50.2,30.01,ENE,61,5.0,9.0,71,0.00,,,0.05,meteohub,2013-11-07 17:51:00,
2013-11-07 12:56:00,58.8,49.8,30.01,NE,56,4.0,13.0,72,0.00,,,0.05,meteohub,2013-11-07 17:56:00,
2013-11-07 12:58:00,58.8,50.2,30.01,North,1,3.0,13.0,73,0.00,,,0.05,meteohub,2013-11-07 17:58:00,
2013-11-07 13:03:00,58.6,50.0,30.01,NNE,13,2.0,13.0,73,0.00,,,0.05,meteohub,2013-11-07 18:03:00,
2013-11-07 13:08:00,58.5,49.8,30.01,NNE,24,6.0,13.0,73,0.00,,,0.05,meteohub,2013-11-07 18:08:00,
2013-11-07 13:13:00,58.6,50.4,30.01,NNE,23,2.0,12.0,74,0.00,,,0.05,meteohub,2013-11-07 18:13:00,
2013-11-07 13:18:00,58.6,50.4,30.01,NNE,15,4.0,11.0,74,0.00,,,0.05,meteohub,2013-11-07 18:18:00,
2013-11-07 13:23:00,58.8,49.8,30.01,NNW,340,4.0,10.0,72,0.00,,,0.05,meteohub,2013-11-07 18:23:00,
2013-11-07 13:28:00,58.8,50.2,30.01,North,350,3.0,11.0,73,0.00,,,0.05,meteohub,2013-11-07 18:28:00,
2013-11-07 13:33:00,58.6,49.3,30.00,NE,50,7.0,11.0,71,0.00,,,0.05,meteohub,2013-11-07 18:33:00,
2013-11-07 13:38:00,58.5,49.1,30.00,NE,54,3.0,13.0,71,0.00,,,0.05,meteohub,2013-11-07 18:38:00,
2013-11-07 13:43:00,58.6,49.3,30.00,NE,43,6.0,13.0,71,0.00,,,0.05,meteohub,2013-11-07 18:43:00,
2013-11-07 13:48:00,58.8,49.1,30.00,NE,50,6.0,13.0,70,0.00,,,0.05,meteohub,2013-11-07 18:48:00,
2013-11-07 13:53:00,58.6,48.2,30.00,NNW,343,4.0,10.0,68,0.00,,,0.05,meteohub,2013-11-07 18:53:00,
2013-11-07 13:58:00,58.6,48.2,30.00,NNE,22,5.0,15.0,68,0.00,,,0.05,meteohub,2013-11-07 18:58:00,
2013-11-07 14:03:00,58.3,47.3,30.00,NE,43,8.0,15.0,67,0.00,,,0.05,meteohub,2013-11-07 19:03:00,
2013-11-07 14:08:00,58.3,47.3,30.00,North,351,7.0,14.0,67,0.00,,,0.05,meteohub,2013-11-07 19:08:00,
2013-11-07 14:13:00,58.1,46.8,30.00,NNE,23,10.0,14.0,66,0.00,,,0.05,meteohub,2013-11-07 19:13:00,
2013-11-07 14:18:00,57.9,46.2,30.00,NNE,20,4.0,14.0,65,0.00,,,0.05,meteohub,2013-11-07 19:18:00,
2013-11-07 14:23:00,57.6,46.2,30.01,NNE,22,5.0,14.0,66,0.00,,,0.05,meteohub,2013-11-07 19:23:00,
2013-11-07 14:29:00,57.4,45.7,30.01,North,359,0.0,14.0,65,0.00,,,0.05,meteohub,2013-11-07 19:29:00,
2013-11-07 14:34:00,57.0,45.0,30.00,NE,56,9.0,12.0,64,0.00,,,0.05,meteohub,2013-11-07 19:34:00,
2013-11-07 14:39:00,56.8,44.8,30.01,East,86,1.0,12.0,64,0.00,,,0.05,meteohub,2013-11-07 19:39:00,
2013-11-07 14:44:00,56.8,44.4,30.01,NNE,13,2.0,14.0,63,0.00,,,0.05,meteohub,2013-11-07 19:44:00,
2013-11-07 14:49:00,56.8,43.9,30.01,ENE,70,4.0,14.0,62,0.00,,,0.05,meteohub,2013-11-07 19:49:00,
2013-11-07 14:54:00,56.7,44.6,30.00,NNE,33,11.0,14.0,64,0.00,,,0.05,meteohub,2013-11-07 19:54:00,
2013-11-07 14:59:00,56.8,43.9,30.00,NE,56,6.0,14.0,62,0.00,,,0.05,meteohub,2013-11-07 19:59:00,
2013-11-07 15:04:00,57.0,42.8,30.01,NW,308,2.0,14.0,59,0.00,,,0.05,meteohub,2013-11-07 20:04:00,
2013-11-07 15:09:00,56.5,41.9,30.01,East,86,7.0,13.0,58,0.00,,,0.05,meteohub,2013-11-07 20:09:00,
2013-11-07 15:14:00,55.9,41.9,30.01,NNE,27,9.0,16.0,59,0.00,,,0.05,meteohub,2013-11-07 20:14:00,
2013-11-07 15:19:00,55.8,42.1,30.01,East,83,4.0,16.0,60,0.00,,,0.05,meteohub,2013-11-07 20:19:00,
2013-11-07 15:24:00,55.4,41.7,30.01,NNE,19,5.0,16.0,60,0.00,,,0.05,meteohub,2013-11-07 20:24:00,
2013-11-07 15:29:00,54.5,40.8,30.02,NE,53,4.0,13.0,60,0.00,,,0.05,meteohub,2013-11-07 20:29:00,
2013-11-07 15:34:00,53.6,40.8,30.02,East,87,5.0,12.0,62,0.00,,,0.05,meteohub,2013-11-07 20:34:00,
2013-11-07 15:39:00,53.1,40.5,30.03,NE,46,10.0,12.0,62,0.00,,,0.05,meteohub,2013-11-07 20:39:00,
2013-11-07 15:44:00,52.5,40.3,30.03,NE,51,8.0,12.0,63,0.00,,,0.05,meteohub,2013-11-07 20:44:00,
2013-11-07 15:49:00,52.2,39.9,30.03,NE,49,7.0,12.0,63,0.00,,,0.05,meteohub,2013-11-07 20:49:00,
2013-11-07 15:54:00,52.0,40.1,30.04,NE,53,3.0,13.0,64,0.00,,,0.05,meteohub,2013-11-07 20:54:00,
2013-11-07 15:59:00,51.6,39.4,30.04,ENE,67,6.0,13.0,63,0.00,,,0.05,meteohub,2013-11-07 20:59:00,
2013-11-07 16:04:00,51.3,39.0,30.04,ENE,68,8.0,11.0,63,0.00,,,0.05,meteohub,2013-11-07 21:04:00,
2013-11-07 16:09:00,51.1,38.8,30.04,ENE,77,3.0,10.0,63,0.00,,,0.05,meteohub,2013-11-07 21:09:00,
2013-11-07 16:14:00,50.5,38.5,30.04,NE,39,6.0,11.0,63,0.00,,,0.05,meteohub,2013-11-07 21:14:00,
2013-11-07 16:19:00,50.2,37.2,30.04,NNW,347,7.0,11.0,61,0.00,,,0.05,meteohub,2013-11-07 21:19:00,
2013-11-07 16:24:00,49.6,37.6,30.05,NE,46,2.0,11.0,63,0.00,,,0.05,meteohub,2013-11-07 21:24:00,
2013-11-07 16:29:00,49.5,36.1,30.05,NE,50,3.0,11.0,60,0.00,,,0.05,meteohub,2013-11-07 21:29:00,
2013-11-07 16:34:00,49.3,36.0,30.05,North,4,8.0,13.0,60,0.00,,,0.05,meteohub,2013-11-07 21:34:00,
2013-11-07 16:39:00,49.3,35.6,30.05,East,89,2.0,13.0,59,0.00,,,0.05,meteohub,2013-11-07 21:39:00,
2013-11-07 16:44:00,48.9,35.2,30.05,NNE,33,4.0,13.0,59,0.00,,,0.05,meteohub,2013-11-07 21:44:00,
2013-11-07 16:49:00,48.7,34.2,30.06,West,278,0.0,9.0,57,0.00,,,0.05,meteohub,2013-11-07 21:49:00,
2013-11-07 16:54:00,48.7,32.9,30.06,NE,47,12.0,12.0,54,0.00,,,0.05,meteohub,2013-11-07 21:54:00,
2013-11-07 16:59:00,48.4,31.6,30.06,ENE,63,7.0,14.0,52,0.00,,,0.05,meteohub,2013-11-07 21:59:00,
2013-11-07 17:04:00,48.0,30.2,30.06,NNE,16,4.0,14.0,50,0.00,,,0.05,meteohub,2013-11-07 22:04:00,
2013-11-07 17:09:00,47.8,29.7,30.06,NNE,30,5.0,14.0,49,0.00,,,0.05,meteohub,2013-11-07 22:09:00,
2013-11-07 17:14:00,47.5,28.8,30.06,NNE,12,10.0,13.0,48,0.00,,,0.05,meteohub,2013-11-07 22:14:00,
2013-11-07 17:19:00,47.3,27.0,30.06,NNE,18,7.0,13.0,45,0.00,,,0.05,meteohub,2013-11-07 22:19:00,
2013-11-07 17:24:00,47.1,25.7,30.06,NE,44,14.0,14.0,43,0.00,,,0.05,meteohub,2013-11-07 22:24:00,
2013-11-07 17:29:00,46.9,25.0,30.06,ENE,61,11.0,12.0,42,0.00,,,0.05,meteohub,2013-11-07 22:29:00,
2013-11-07 17:34:00,46.6,25.3,30.07,NNW,336,7.0,17.0,43,0.00,,,0.05,meteohub,2013-11-07 22:34:00,
2013-11-07 17:39:00,46.2,25.0,30.07,NE,51,8.0,17.0,43,0.00,,,0.05,meteohub,2013-11-07 22:39:00,
2013-11-07 17:45:00,46.0,24.8,30.07,NE,36,7.0,20.0,43,0.00,,,0.05,meteohub,2013-11-07 22:45:00,
2013-11-07 17:50:00,45.9,24.6,30.07,North,352,5.0,20.0,43,0.00,,,0.05,meteohub,2013-11-07 22:50:00,
2013-11-07 17:55:00,45.7,25.0,30.08,NNE,18,12.0,17.0,44,0.00,,,0.05,meteohub,2013-11-07 22:55:00,
2013-11-07 18:00:00,45.3,24.6,30.08,NNW,338,5.0,17.0,44,0.00,,,0.05,meteohub,2013-11-07 23:00:00,
2013-11-07 18:05:00,45.1,24.4,30.08,NE,37,5.0,13.0,44,0.00,,,0.05,meteohub,2013-11-07 23:05:00,
2013-11-07 18:10:00,45.0,25.0,30.08,ENE,70,5.0,13.0,45,0.00,,,0.05,meteohub,2013-11-07 23:10:00,
2013-11-07 18:15:00,44.8,25.3,30.09,NNW,347,10.0,13.0,46,0.00,,,0.05,meteohub,2013-11-07 23:15:00,
2013-11-07 18:20:00,44.4,25.5,30.09,ENE,65,2.0,16.0,47,0.00,,,0.05,meteohub,2013-11-07 23:20:00,
2013-11-07 18:25:00,44.1,25.2,30.09,NNE,12,9.0,16.0,47,0.00,,,0.05,meteohub,2013-11-07 23:25:00,
2013-11-07 18:30:00,44.1,25.7,30.09,ENE,68,4.0,15.0,48,0.00,,,0.05,meteohub,2013-11-07 23:30:00,
2013-11-07 18:35:00,43.7,24.8,30.09,NW,316,5.0,16.0,47,0.00,,,0.05,meteohub,2013-11-07 23:35:00,
2013-11-07 18:40:00,43.5,24.6,30.09,East,85,1.0,16.0,47,0.00,,,0.05,meteohub,2013-11-07 23:40:00,
2013-11-07 18:45:00,43.5,26.1,30.10,NE,54,9.0,16.0,50,0.00,,,0.05,meteohub,2013-11-07 23:45:00,
2013-11-07 18:50:00,43.2,27.1,30.10,North,6,8.0,12.0,53,0.00,,,0.05,meteohub,2013-11-07 23:50:00,
2013-11-07 18:55:00,43.0,28.8,30.10,NE,55,3.0,14.0,57,0.00,,,0.05,meteohub,2013-11-07 23:55:00,
2013-11-07 19:00:00,42.6,28.4,30.10,ENE,60,5.0,15.0,57,0.00,,,0.05,meteohub,2013-11-08 00:00:00,
2013-11-07 19:05:00,42.4,28.8,30.10,ENE,66,2.0,15.0,58,0.00,,,0.00,meteohub,2013-11-08 00:05:00,
2013-11-07 19:10:00,42.4,29.5,30.10,NE,44,1.0,11.0,60,0.00,,,0.00,meteohub,2013-11-08 00:10:00,
2013-11-07 19:15:00,42.3,29.3,30.10,NNE,19,7.0,13.0,60,0.00,,,0.00,meteohub,2013-11-08 00:15:00,
2013-11-07 19:20:00,41.9,29.5,30.11,NE,54,5.0,13.0,61,0.00,,,0.00,meteohub,2013-11-08 00:20:00,
2013-11-07 19:25:00,41.7,29.7,30.11,NE,36,6.0,12.0,62,0.00,,,0.00,meteohub,2013-11-08 00:25:00,
2013-11-07 19:30:00,41.5,29.8,30.11,ENE,58,7.0,12.0,63,0.00,,,0.00,meteohub,2013-11-08 00:30:00,
2013-11-07 19:35:00,41.4,30.0,30.11,NE,46,8.0,9.0,64,0.00,,,0.00,meteohub,2013-11-08 00:35:00,
2013-11-07 19:40:00,41.4,30.0,30.12,NNE,28,6.0,9.0,64,0.00,,,0.00,meteohub,2013-11-08 00:40:00,
2013-11-07 19:45:00,41.2,30.0,30.11,ENE,60,11.0,11.0,64,0.00,,,0.00,meteohub,2013-11-08 00:45:00,
2013-11-07 19:50:00,41.2,29.5,30.11,NNE,33,11.0,14.0,63,0.00,,,0.00,meteohub,2013-11-08 00:50:00,
2013-11-07 19:55:00,41.4,29.7,30.11,NE,43,5.0,16.0,63,0.00,,,0.00,meteohub,2013-11-08 00:55:00,
2013-11-07 20:00:00,41.2,30.0,30.11,NNW,344,3.0,16.0,64,0.00,,,0.00,meteohub,2013-11-08 01:00:00,
2013-11-07 20:05:00,41.0,30.2,30.11,ENE,63,6.0,16.0,65,0.00,,,0.00,meteohub,2013-11-08 01:05:00,
2013-11-07 20:10:00,40.8,30.4,30.11,NNW,332,0.0,12.0,66,0.00,,,0.00,meteohub,2013-11-08 01:10:00,
2013-11-07 20:15:00,40.6,30.2,30.11,NNE,19,2.0,8.0,66,0.00,,,0.00,meteohub,2013-11-08 01:15:00,
2013-11-07 20:20:00,40.6,30.2,30.11,NE,47,4.0,8.0,66,0.00,,,0.00,meteohub,2013-11-08 01:20:00,
2013-11-07 20:25:00,40.5,30.4,30.11,NE,34,4.0,10.0,67,0.00,,,0.00,meteohub,2013-11-08 01:25:00,
2013-11-07 20:30:00,40.3,30.2,30.11,NNE,19,6.0,10.0,67,0.00,,,0.00,meteohub,2013-11-08 01:30:00,
2013-11-07 20:35:00,40.3,30.2,30.12,NE,36,4.0,10.0,67,0.00,,,0.00,meteohub,2013-11-08 01:35:00,
2013-11-07 20:40:00,40.3,30.2,30.12,ENE,58,7.0,11.0,67,0.00,,,0.00,meteohub,2013-11-08 01:40:00,
2013-11-07 20:45:00,40.3,30.2,30.12,ENE,71,2.0,11.0,67,0.00,,,0.00,meteohub,2013-11-08 01:45:00,
2013-11-07 20:50:00,40.3,30.2,30.12,NNE,25,10.0,11.0,67,0.00,,,0.00,meteohub,2013-11-08 01:50:00,
2013-11-07 20:55:00,40.5,30.0,30.12,NNE,18,3.0,11.0,66,0.00,,,0.00,meteohub,2013-11-08 01:55:00,
2013-11-07 21:00:00,40.3,29.8,30.12,NE,49,5.0,11.0,66,0.00,,,0.00,meteohub,2013-11-08 02:00:00,
2013-11-07 21:05:00,40.5,30.0,30.12,NE,37,7.0,10.0,66,0.00,,,0.00,meteohub,2013-11-08 02:05:00,
2013-11-07 21:11:00,40.3,29.8,30.12,NNE,29,0.0,10.0,66,0.00,,,0.00,meteohub,2013-11-08 02:11:00,
2013-11-07 21:16:00,40.3,29.8,30.12,NNE,23,5.0,11.0,66,0.00,,,0.00,meteohub,2013-11-08 02:16:00,
2013-11-07 21:21:00,40.3,29.8,30.12,NNE,22,5.0,11.0,66,0.00,,,0.00,meteohub,2013-11-08 02:21:00,
2013-11-07 21:26:00,40.1,29.7,30.13,NNE,29,10.0,11.0,66,0.00,,,0.00,meteohub,2013-11-08 02:26:00,
2013-11-07 21:31:00,40.1,29.7,30.12,NE,46,4.0,10.0,66,0.00,,,0.00,meteohub,2013-11-08 02:31:00,
2013-11-07 21:36:00,40.1,29.7,30.12,NNE,27,3.0,10.0,66,0.00,,,0.00,meteohub,2013-11-08 02:36:00,
2013-11-07 21:41:00,40.1,29.7,30.13,North,7,3.0,12.0,66,0.00,,,0.00,meteohub,2013-11-08 02:41:00,
2013-11-07 21:46:00,39.9,29.5,30.12,NE,49,2.0,12.0,66,0.00,,,0.00,meteohub,2013-11-08 02:46:00,
2013-11-07 21:51:00,39.9,29.5,30.13,ENE,75,7.0,12.0,66,0.00,,,0.00,meteohub,2013-11-08 02:51:00,
2013-11-07 21:56:00,39.9,29.5,30.13,NE,47,3.0,15.0,66,0.00,,,0.00,meteohub,2013-11-08 02:56:00,
2013-11-07 22:01:00,39.9,29.5,30.13,NE,44,2.0,15.0,66,0.00,,,0.00,meteohub,2013-11-08 03:01:00,
2013-11-07 22:06:00,39.9,29.1,30.13,North,351,4.0,15.0,65,0.00,,,0.00,meteohub,2013-11-08 03:06:00,
2013-11-07 22:11:00,39.7,28.6,30.13,NE,51,9.0,14.0,64,0.00,,,0.00,meteohub,2013-11-08 03:11:00,
2013-11-07 22:16:00,39.9,28.8,30.13,NNW,345,3.0,15.0,64,0.00,,,0.00,meteohub,2013-11-08 03:16:00,
2013-11-07 22:21:00,39.9,28.4,30.13,North,354,3.0,15.0,63,0.00,,,0.00,meteohub,2013-11-08 03:21:00,
2013-11-07 22:26:00,40.1,27.7,30.13,NE,39,14.0,15.0,61,0.00,,,0.00,meteohub,2013-11-08 03:26:00,
2013-11-07 22:31:00,40.3,27.5,30.13,North,355,4.0,16.0,60,0.00,,,0.00,meteohub,2013-11-08 03:31:00,
2013-11-07 22:36:00,40.3,26.6,30.13,NE,46,9.0,16.0,58,0.00,,,0.00,meteohub,2013-11-08 03:36:00,
2013-11-07 22:41:00,40.3,26.6,30.14,NNE,23,2.0,15.0,58,0.00,,,0.00,meteohub,2013-11-08 03:41:00,
2013-11-07 22:46:00,40.3,25.9,30.14,NNE,25,3.0,15.0,56,0.00,,,0.00,meteohub,2013-11-08 03:46:00,
2013-11-07 22:51:00,40.3,25.9,30.14,NNE,32,2.0,15.0,56,0.00,,,0.00,meteohub,2013-11-08 03:51:00,
2013-11-07 22:56:00,40.3,25.9,30.14,NNE,23,9.0,15.0,56,0.00,,,0.00,meteohub,2013-11-08 03:56:00,
2013-11-07 23:01:00,40.3,25.3,30.14,NNE,21,4.0,15.0,55,0.00,,,0.00,meteohub,2013-11-08 04:01:00,
2013-11-07 23:06:00,40.3,25.3,30.14,ENE,58,6.0,15.0,55,0.00,,,0.00,meteohub,2013-11-08 04:06:00,
2013-11-07 23:11:00,40.1,24.8,30.14,NE,54,3.0,16.0,54,0.00,,,0.00,meteohub,2013-11-08 04:11:00,
2013-11-07 23:16:00,39.9,24.6,30.13,NE,40,8.0,16.0,54,0.00,,,0.00,meteohub,2013-11-08 04:16:00,
2013-11-07 23:21:00,39.9,24.6,30.13,North,349,3.0,16.0,54,0.00,,,0.00,meteohub,2013-11-08 04:21:00,
2013-11-07 23:26:00,39.9,24.6,30.14,NNE,20,5.0,15.0,54,0.00,,,0.00,meteohub,2013-11-08 04:26:00,
2013-11-07 23:31:00,39.9,24.6,30.14,North,349,4.0,15.0,54,0.00,,,0.00,meteohub,2013-11-08 04:31:00,
2013-11-07 23:36:00,39.9,24.6,30.14,NNE,27,10.0,16.0,54,0.00,,,0.00,meteohub,2013-11-08 04:36:00,
2013-11-07 23:41:00,39.7,25.0,30.14,NE,47,6.0,16.0,55,0.00,,,0.00,meteohub,2013-11-08 04:41:00,
2013-11-07 23:46:00,39.7,25.0,30.14,North,4,6.0,16.0,55,0.00,,,0.00,meteohub,2013-11-08 04:46:00,
2013-11-07 23:51:00,39.7,25.0,30.14,ENE,58,13.0,17.0,55,0.00,,,0.00,meteohub,2013-11-08 04:51:00,
2013-11-07 23:56:00,39.7,25.0,30.14,NNE,18,9.0,20.0,55,0.00,,,0.00,meteohub,2013-11-08 04:56:00,